contact:dominique.lefevre@mio.osupytheas.fr, maurice.libes@osupytheas.fr
Project:EMSO Ligure-ouest http://www.emso-fr.org/EMSO-France
Sensor Aquadopp, line 13 Serial AQD14315 
DOI : "https://doi.org/10.17882/74513; https://doi.org/10.17882/83244" 
Title:EMSO Ligure Ouest : Data ligne ALBATROSS capteur AQUADOPP - deploiement 2021
Id,Date,Profondeur,Latitude,Longitude,X_East,Y_North,Z_Up,Amplitude_X,Amplitude_Y,Amplitude_Z,Batterie,SoundSpeed,Heading,Pitch,Roll,Pressure,Temperature,Speed,Direction
, , m, degrees North, degrees East, m.s-1, m.s-1,m.s-1, 1, 1, 1, Volt, m.s-1, degree, degree, degree, dbar, degree_C, m.s-1, degree
13,2022-08-26T23:30:00,2400.0,42.79,6.0312,-0.004,0.017,-0.021,64.0,57.0,61.0,12.9,1504.9,341.4,0.0,-0.4,2393.037,13.34,0.017,346.8
13,2022-08-27T00:00:00,2400.0,42.79,6.0312,0.0,0.012,-0.034,65.0,58.0,59.0,12.9,1504.9,343.7,0.0,-0.3,2393.061,13.34,0.012,0.0
13,2022-08-27T00:30:00,2400.0,42.79,6.0312,-0.008,0.012,-0.024,62.0,57.0,57.0,13.0,1504.9,343.3,0.0,-0.3,2392.998,13.34,0.014,326.3
13,2022-08-27T01:00:00,2400.0,42.79,6.0312,-0.007,0.016,-0.019,62.0,57.0,61.0,12.9,1504.9,346.5,-0.1,-0.3,2392.949,13.34,0.017,336.4
13,2022-08-27T01:30:00,2400.0,42.79,6.0312,-0.002,-0.003,-0.033,63.0,57.0,59.0,13.0,1504.9,347.3,0.0,-0.2,2392.992,13.34,0.003,213.7
13,2022-08-27T02:00:00,2400.0,42.79,6.0312,-0.017,0.029,-0.009,63.0,58.0,59.0,13.0,1504.9,352.6,0.0,-0.4,2392.917,13.34,0.033,329.6
13,2022-08-27T02:30:00,2400.0,42.79,6.0312,-0.001,0.027,-0.005,67.0,57.0,62.0,12.9,1504.9,352.5,-0.2,-0.5,2392.956,13.34,0.027,357.9
13,2022-08-27T03:00:00,2400.0,42.79,6.0312,0.011,0.014,0.01,66.0,61.0,62.0,12.9,1504.9,357.4,-0.1,-0.4,2392.961,13.34,0.017,38.2
13,2022-08-27T03:30:00,2400.0,42.79,6.0312,0.007,0.005,-0.01,66.0,56.0,59.0,12.9,1504.9,0.5,0.0,-0.4,2393.004,13.34,0.008,54.5
13,2022-08-27T04:00:00,2400.0,42.79,6.0312,0.026,0.014,0.0,63.0,60.0,60.0,13.0,1504.9,3.3,0.0,-0.4,2392.984,13.34,0.029,61.7
13,2022-08-27T04:30:00,2400.0,42.79,6.0312,0.005,0.009,0.015,65.0,58.0,60.0,13.0,1504.9,5.9,-0.1,-0.3,2393.007,13.34,0.01,29.1
13,2022-08-27T05:00:00,2400.0,42.79,6.0312,0.012,0.014,-0.02,64.0,58.0,58.0,12.9,1504.9,2.7,0.0,-0.4,2393.07,13.34,0.018,40.6
13,2022-08-27T05:30:00,2400.0,42.79,6.0312,0.012,0.027,-0.022,65.0,56.0,58.0,12.9,1504.9,4.5,-0.1,-0.4,2393.057,13.34,0.029,24.0
13,2022-08-27T06:00:00,2400.0,42.79,6.0312,0.007,0.025,0.007,62.0,59.0,57.0,12.9,1504.9,3.4,-0.1,-0.3,2393.053,13.34,0.025,15.6
13,2022-08-27T06:30:00,2400.0,42.79,6.0312,0.019,0.038,-0.025,62.0,57.0,64.0,12.9,1504.9,6.4,0.0,-0.3,2393.066,13.34,0.042,26.6
13,2022-08-27T07:30:00,2400.0,42.79,6.0312,0.029,0.03,-0.003,62.0,56.0,60.0,12.9,1504.9,7.1,0.0,-0.4,2393.094,13.34,0.041,44.0
13,2022-08-27T08:00:00,2400.0,42.79,6.0312,0.018,0.004,-0.022,66.0,58.0,61.0,13.0,1504.9,4.7,0.1,-0.3,2393.064,13.34,0.018,77.5
13,2022-08-27T08:30:00,2400.0,42.79,6.0312,0.032,0.019,-0.01,61.0,55.0,56.0,12.9,1504.9,5.2,-0.1,-0.4,2393.077,13.34,0.037,59.3
13,2022-08-27T09:00:00,2400.0,42.79,6.0312,0.017,0.013,-0.018,65.0,59.0,60.0,12.9,1504.9,357.5,0.1,-0.4,2393.049,13.34,0.021,52.6
13,2022-08-27T09:30:00,2400.0,42.79,6.0312,0.019,0.0,0.009,64.0,58.0,62.0,12.9,1504.9,358.1,0.0,-0.3,2393.02,13.34,0.019,90.0
13,2022-08-27T10:00:00,2400.0,42.79,6.0312,0.02,0.014,0.038,65.0,58.0,59.0,12.9,1504.9,355.4,0.0,-0.5,2393.017,13.34,0.024,55.0
13,2022-08-27T10:30:00,2400.0,42.79,6.0312,0.005,0.016,0.006,59.0,57.0,63.0,12.9,1504.9,348.0,-0.1,-0.4,2392.961,13.34,0.016,17.4
13,2022-08-27T11:00:00,2400.0,42.79,6.0312,-0.003,0.02,0.009,61.0,56.0,56.0,12.9,1504.9,344.2,-0.1,-0.4,2392.919,13.34,0.02,351.5
13,2022-08-27T11:30:00,2400.0,42.79,6.0312,-0.009,0.007,-0.012,64.0,55.0,58.0,12.9,1504.9,342.1,-0.1,-0.4,2392.962,13.34,0.011,307.9
13,2022-08-27T12:00:00,2400.0,42.79,6.0312,-0.01,0.006,-0.015,63.0,61.0,58.0,12.9,1504.9,341.4,0.0,-0.4,2392.947,13.34,0.011,301.0
13,2022-08-27T13:00:00,2400.0,42.79,6.0312,0.026,0.004,-0.016,65.0,58.0,58.0,12.9,1504.9,341.0,-0.1,-0.3,2392.962,13.34,0.026,81.3
13,2022-08-27T13:30:00,2400.0,42.79,6.0312,0.017,0.005,-0.001,63.0,56.0,61.0,12.9,1504.9,345.2,0.0,-0.4,2392.933,13.34,0.017,73.6
13,2022-08-27T14:00:00,2400.0,42.79,6.0312,0.002,0.016,0.019,61.0,54.0,59.0,12.9,1504.9,346.9,-0.1,-0.4,2392.937,13.34,0.016,7.1
13,2022-08-27T14:30:00,2400.0,42.79,6.0312,0.0,-0.014,0.023,62.0,56.0,59.0,12.9,1504.9,347.7,0.0,-0.3,2392.907,13.34,0.014,180.0
13,2022-08-27T15:00:00,2400.0,42.79,6.0312,-0.009,0.013,0.001,63.0,58.0,57.0,12.9,1504.9,349.0,0.0,-0.4,2392.948,13.34,0.015,325.3
13,2022-08-27T15:30:00,2400.0,42.79,6.0312,0.002,0.021,-0.003,64.0,58.0,64.0,13.0,1504.9,353.4,0.1,-0.3,2392.95,13.34,0.021,5.4
13,2022-08-27T16:00:00,2400.0,42.79,6.0312,-0.021,0.012,0.005,62.0,58.0,62.0,12.9,1504.9,354.5,0.0,-0.4,2393.003,13.34,0.024,299.7
13,2022-08-27T16:30:00,2400.0,42.79,6.0312,-0.001,-0.005,0.0,62.0,56.0,56.0,12.9,1504.9,356.1,0.0,-0.3,2393.03,13.34,0.005,191.3
13,2022-08-27T17:00:00,2400.0,42.79,6.0312,0.014,0.026,-0.031,63.0,57.0,60.0,12.9,1504.9,355.4,0.0,-0.5,2393.064,13.34,0.029,28.3
13,2022-08-27T17:30:00,2400.0,42.79,6.0312,-0.001,0.033,0.008,62.0,58.0,58.0,12.9,1504.9,358.4,0.0,-0.4,2393.095,13.34,0.033,358.3
13,2022-08-27T18:00:00,2400.0,42.79,6.0312,0.002,0.02,0.008,65.0,59.0,61.0,12.9,1504.9,0.6,-0.1,-0.4,2393.167,13.34,0.02,5.7
13,2022-08-27T18:30:00,2400.0,42.79,6.0312,0.004,0.011,0.008,62.0,57.0,57.0,12.9,1504.9,5.5,0.1,-0.2,2393.156,13.34,0.011,20.0
13,2022-08-27T19:00:00,2400.0,42.79,6.0312,-0.002,0.028,-0.015,65.0,57.0,58.0,12.9,1504.9,3.0,-0.1,-0.3,2393.175,13.34,0.028,355.9
13,2022-08-27T19:30:00,2400.0,42.79,6.0312,0.001,0.031,0.016,62.0,59.0,61.0,12.9,1504.9,2.7,0.0,-0.4,2393.168,13.34,0.031,1.8
13,2022-08-27T20:00:00,2400.0,42.79,6.0312,-0.002,0.013,0.013,60.0,59.0,58.0,12.9,1504.9,2.7,-0.1,-0.4,2393.215,13.34,0.013,351.3
13,2022-08-27T20:30:00,2400.0,42.79,6.0312,0.016,0.022,-0.004,64.0,58.0,58.0,12.9,1504.9,5.9,-0.1,-0.4,2393.173,13.34,0.027,36.0
13,2022-08-27T21:00:00,2400.0,42.79,6.0312,0.013,0.022,-0.014,60.0,57.0,59.0,12.9,1504.9,6.7,-0.1,-0.3,2393.205,13.34,0.025,30.6
13,2022-08-27T21:30:00,2400.0,42.79,6.0312,0.03,0.015,-0.002,63.0,57.0,58.0,12.9,1504.9,4.8,0.0,-0.3,2393.132,13.34,0.033,63.4
13,2022-08-27T22:00:00,2400.0,42.79,6.0312,0.007,0.003,-0.005,62.0,56.0,61.0,12.9,1504.9,9.0,0.0,-0.3,2393.157,13.34,0.007,66.8
13,2022-08-27T22:30:00,2400.0,42.79,6.0312,0.026,0.021,0.0,63.0,56.0,61.0,12.9,1504.9,12.9,0.0,-0.3,2393.078,13.34,0.033,51.1
13,2022-08-27T23:00:00,2400.0,42.79,6.0312,0.034,-0.012,0.014,63.0,57.0,59.0,12.9,1504.9,6.6,0.0,-0.4,2393.122,13.34,0.036,109.4
